New Delhi, India

8:42 AM IST on August 23, 2017 (GMT +0530)
Indira Gandhi International

Weather History for VIDP - January, 2014

Change the Weather History Date:

Friday, January 24, 2014

  Actual Average Record
Temperature  
Mean Temperature 56 °F -  
Max Temperature 62 °F 71 °F 79 °F (2017)
Min Temperature 50 °F 50 °F 42 °F (2016)
Degree Days  
Heating Degree Days 9    
Growing Degree Days 6 (Base 50)    
Moisture  
Dew Point 54 °F    
Average Humidity 97    
Maximum Humidity 100    
Minimum Humidity 82    
Precipitation  
Precipitation 0.00 in - - ()
Sea Level Pressure  
Sea Level Pressure 30.08 in    
Wind  
Wind Speed 5 mph ()    
Max Wind Speed 10 mph    
Max Gust Speed -    
Visibility 0.7 miles    
Events Fog    
Averages and records for this station are not official NWS values.
T = Trace of Precipitation, MM = Missing Value Source: Averaged Metar Reports

Daily Weather History Graph

Daily Weather History Graph

Search for Another Location

Airport or City:

Trip Planner

Search our weather history database for the weather conditions in past years. The results will help you decide how hot, cold, wet, or windy it might be!

Date:

Astronomy

Jan. 24, 2014 Rise Set
Actual Time 7:13 AM IST 5:54 PM IST
Civil Twilight 6:48 AM IST 6:19 PM IST
Nautical Twilight 6:19 AM IST 6:47 PM IST
Astronomical Twilight 5:51 AM IST 7:15 PM IST
Moon No Moon Rise 11:48 AM IST (1/24)
Length of Visible Light 11h 30m
Length of Day
10h 40m
Waning Gibbous, 49% of the Moon is Illuminated
Jan 24
Waning Gibbous
Jan 31
New
Feb 7
First Quarter
Feb 15
Full
Feb 22
Last Quarter

Hourly Weather History & Observations

Time (IST) Temp. Dew Point Humidity Pressure Visibility Wind Dir Wind Speed Gust Speed Precip Events Conditions
12:00 AM 53.6 °F 53.6 °F 100% 30.12 in - Calm Calm - N/A Fog Fog
12:30 AM 51.8 °F 51.8 °F 100% 30.09 in - WSW 4.6 mph - N/A Fog Fog
1:00 AM 51.8 °F 51.8 °F 100% 30.09 in - WSW 4.6 mph - N/A Fog Fog
1:30 AM 51.8 °F 51.8 °F 100% 30.09 in - West 3.5 mph - N/A Fog Fog
2:00 AM 51.8 °F 51.8 °F 100% 30.09 in - SW 4.6 mph - N/A Fog Fog
2:30 AM 51.8 °F 51.8 °F 100% 30.06 in - WSW 4.6 mph - N/A Fog Fog
3:00 AM 51.8 °F 51.8 °F 100% 30.06 in - WSW 4.6 mph - N/A Fog Fog
3:30 AM 51.8 °F 51.8 °F 100% 30.06 in - West 4.6 mph - N/A Fog Fog
4:00 AM 51.8 °F 51.8 °F 100% 30.06 in - West 4.6 mph - N/A Fog Fog
4:30 AM 51.8 °F 51.8 °F 100% 30.06 in 0.0 mi West 4.6 mph - N/A Fog Fog
5:00 AM 53.6 °F 53.6 °F 100% 30.06 in 0.1 mi West 4.6 mph - N/A Fog Fog
5:30 AM 53.6 °F 53.6 °F 100% 30.06 in 0.2 mi WNW 4.6 mph - N/A Fog Fog
6:00 AM 53.6 °F 53.6 °F 100% 30.06 in 0.2 mi WNW 5.8 mph - N/A Fog Fog
6:30 AM 51.8 °F 51.8 °F 100% 30.06 in 0.1 mi WNW 6.9 mph - N/A Fog Fog
7:00 AM 51.8 °F 51.8 °F 100% 30.06 in 0.1 mi West 6.9 mph - N/A Fog Fog
7:30 AM 51.8 °F 51.8 °F 100% 30.09 in 0.1 mi West 5.8 mph - N/A Fog Fog
8:00 AM 50.0 °F 50.0 °F 100% 30.09 in 0.1 mi West 6.9 mph - N/A Fog Fog
9:00 AM 51.8 °F 51.8 °F 100% 30.12 in 0.1 mi WNW 6.9 mph - N/A Fog Fog
9:30 AM 51.8 °F 51.8 °F 100% 30.12 in 0.2 mi West 8.1 mph - N/A Fog Fog
10:00 AM 53.6 °F 53.6 °F 100% 30.12 in 0.4 mi West 6.9 mph - N/A Fog Fog
11:00 AM 53.6 °F 53.6 °F 100% 30.15 in 0.7 mi West 8.1 mph - N/A   Mist
12:00 PM 55.4 °F 55.4 °F 100% 30.12 in 1.1 mi West 8.1 mph - N/A   Mist
12:30 PM 57.2 °F 57.2 °F 100% 30.12 in 1.4 mi WNW 8.1 mph - N/A   Mist
1:00 PM 59.0 °F 59.0 °F 100% 30.09 in 1.4 mi WNW 10.4 mph - N/A   Mostly Cloudy
1:30 PM 59.0 °F 59.0 °F 100% 30.09 in 1.7 mi WNW 9.2 mph - N/A   Mostly Cloudy
2:00 PM 60.8 °F 59.0 °F 94% 30.06 in 1.8 mi WNW 10.4 mph - N/A   Mostly Cloudy
2:30 PM 62.6 °F 59.0 °F 88% 30.06 in 1.7 mi WNW 10.4 mph - N/A   Mostly Cloudy
3:00 PM 62.6 °F 57.2 °F 82% 30.06 in 1.7 mi WNW 10.4 mph - N/A   Scattered Clouds
4:00 PM 62.6 °F 57.2 °F 82% 30.06 in 1.9 mi West 9.2 mph - N/A   Scattered Clouds
4:30 PM 62.6 °F 57.2 °F 82% 30.06 in 1.6 mi WNW 9.2 mph - N/A   Scattered Clouds
5:00 PM 60.8 °F 57.2 °F 88% 30.06 in 1.6 mi West 8.1 mph - N/A   Scattered Clouds
5:30 PM 59.0 °F 55.4 °F 88% 30.06 in 1.3 mi West 9.2 mph - N/A   Scattered Clouds
6:00 PM 59.0 °F 55.4 °F 88% 30.06 in 1.1 mi West 8.1 mph - N/A   Partly Cloudy
6:30 PM 57.2 °F 55.4 °F 94% 30.06 in 1.0 mi West 5.8 mph - N/A   Partly Cloudy
8:00 PM 53.6 °F 51.8 °F 94% 30.09 in 0.2 mi WSW 4.6 mph - N/A Fog Fog
8:30 PM 53.6 °F 53.6 °F 100% 30.09 in 0.1 mi West 5.8 mph - N/A Fog Fog
9:00 PM 53.6 °F 53.6 °F 100% 30.09 in 0.1 mi West 4.6 mph - N/A Fog Fog
9:30 PM 53.6 °F 53.6 °F 100% 30.09 in 0.1 mi West 3.5 mph - N/A Fog Fog
10:00 PM 53.6 °F 53.6 °F 100% 30.09 in 0.0 mi West 4.6 mph - N/A Fog Fog
10:30 PM 53.6 °F 51.8 °F 94% 30.09 in 0.1 mi West 4.6 mph - N/A Fog Fog
11:00 PM 51.8 °F 51.8 °F 100% 30.09 in 0.0 mi Calm Calm - N/A Fog Fog
11:30 PM 51.8 °F 51.8 °F 100% 30.09 in - Calm Calm - N/A Fog Fog